This is the latest recevied weather packets stored in our database for station/object KC8BSD. If no packets are shown the sender has not sent any weather packets the latest 10 day(s).
| Time | Temp. | Humidity | Pressure | Rain* | Wind** | Luminosity | Snow |
|---|---|---|---|---|---|---|---|
| 1777584572 | 11.11° C | 45% | 1015.4 hPa | 0 mm | - | 145 W/m² | - |
| 1777584269 | 11.67° C | 47% | 1015.1 hPa | 0 mm | - | 157 W/m² | - |
| 1777583969 | 12.22° C | 44% | 1015.1 hPa | 0 mm | - | 465 W/m² | - |
| 1777583664 | 12.22° C | 46% | 1015.2 hPa | 0 mm | - | 221 W/m² | - |
| 1777583364 | 11.11° C | 47% | 1015.2 hPa | 0 mm | - | 239 W/m² | - |
| 1777583058 | 11.67° C | 47% | 1015.2 hPa | 0 mm | - | 101 W/m² | - |
| 1777582755 | 11.11° C | 47% | 1015.3 hPa | 0 mm | - | 114 W/m² | - |
| 1777582445 | 12.22° C | 46% | 1015.4 hPa | 0 mm | - | 164 W/m² | - |
| 1777582145 | 12.22° C | 44% | 1015.3 hPa | 0 mm | - | 378 W/m² | - |
| 1777581844 | 12.78° C | 43% | 1015.4 hPa | 0 mm | - | 173 W/m² | - |
| 1777581543 | 12.78° C | 45% | 1015.3 hPa | 0 mm | - | 670 W/m² | - |
| 1777581239 | 11.67° C | 47% | 1015.5 hPa | 0 mm | - | 617 W/m² | - |
| 1777580933 | 11.11° C | 47% | 1015.5 hPa | 0 mm | - | 330 W/m² | - |
| 1777580633 | 11.11° C | 47% | 1015.7 hPa | 0 mm | - | 144 W/m² | - |
| 1777580329 | 11.67° C | 49% | 1015.4 hPa | 0 mm | - | 161 W/m² | - |
| 1777580026 | 12.22° C | 42% | 1015.3 hPa | 0 mm | - | 153 W/m² | - |
| 1777579722 | 12.78° C | 44% | 1015.3 hPa | 0 mm | - | 751 W/m² | - |
| 1777579420 | 13.33° C | 46% | 1015.4 hPa | 0 mm | - | 749 W/m² | - |
| 1777579116 | 12.22° C | 45% | 1015.3 hPa | 0 mm | - | 358 W/m² | - |
| 1777578810 | 12.78° C | 45% | 1015.5 hPa | 0 mm | - | 300 W/m² | - |
| 1777578505 | 12.78° C | 45% | 1015.5 hPa | 0 mm | - | 244 W/m² | - |
| 1777578200 | 12.22° C | 47% | 1015.6 hPa | 0 mm | - | 882 W/m² | - |
| 1777577896 | 12.22° C | 48% | 1015.6 hPa | 0 mm | - | 825 W/m² | - |
| 1777577592 | 11.67° C | 52% | 1015.6 hPa | 0 mm | - | 783 W/m² | - |
| 1777577289 | 11.11° C | 50% | 1016 hPa | 0 mm | - | 514 W/m² | - |
* Rain latest hour (hover to see other rain measurements)
** Current wind speed in m/s (hover to see current wind gust speed)